Voltar ao catálogo

STARLINK-35188

AtivoComunicaçõesSSO
NORAD 65522·PAYLOAD·🇺🇸 United States

Lançado Sep 6, 2025 de Cape Canaveral Space Force Station

Loading…

Próximas Passagens (próximas 24 horas)

TLE

AtualizadoSource: CelesTrak SupGP

Época: Sep 14, 2026, 22:45 UTC

1 65522C 25200C   26257.94840278  .00017125  00000+0  53177-3 0  2571
2 65522  97.2842 324.4304 0001058  83.4926 190.4206 15.33420227    12

Acompanhe STARLINK-35188 em tempo real com AllMySat

Download on the App Store